Regional Weather Roundup
Issued by NWS Goodland, KS

Home | Current Version | Previous Version | Text Only | Print | Product List | Glossary On
Versions: 1 2 3 4 5 6 7 8 9 10 11 12 13 14 15 16 17 18 19 20 21 22 23 24 25 26 27 28 29 30 31 32 33 34 35 36 37 38 39 40 41 42 43 44 45 46 47 48 49 50
000
ASUS43 KGLD 211608
RWRGLD

GOODLAND FORECAST AREA HOURLY WEATHER ROUNDUP
NATIONAL WEATHER SERVICE GOODLAND KS
900 AM MST TUE NOV 21 2017

...OFFICIAL OBSERVATIONS...

CITY           SKY/WX    TMP DP  RH WIND       PRES   REMARKS
GOODLAND KS    SUNNY     39  27  62 N24G32    30.23R
HILL CITY KS   SUNNY     43  27  53 N29G38    30.22R
IMPERIAL NEB   NOT AVBL
MCCOOK NEB     CLOUDY    39  26  59 N20G26    30.23R
AKRON CO       SUNNY     35  24  64 N9        30.27R
BURLINGTON CO  SUNNY     39  26  59 N18G28    30.25R
LIMON CO       CLOUDY    38  29  70 N14       30.27R
$$

...UNOFFICIAL OBSERVATIONS...

CITY           SKY/WX    TMP DP  RH WIND       PRES   REMARKS
COLBY KS       SUNNY     41  30  65 N20G29    30.24R
NORTON KS      SUNNY     39  21  48 N21       30.21
SHARON SPRINGS   N/A     42  28  56 N16G26      N/A
YUMA CO        PTSUNNY   34  27  75 N13G22    30.27R
$$



USA.gov is the U.S. government's official web portal to all federal, state and local government web resources and services.